STARLINK-1944, 46796

Orbit data source: Space-Track

STARLINK-1944, 46796 is a payload satellite owned by SpaceX/Seattle (US) in LEO that was launched on Sat, 24 Oct 2020 UTC via an FALCON 9 launch vehicle from the Air Force Eastern Test Range (AFETR). Payload-class satellites include a variety of spacecraft equipped with specific instruments for various scientific and technological missions. These include communications satellites like Starlink; space stations such as the ISS; scientific satellites like the Hubble; Earth observation satellites from companies like Planet Labs, Umbra, and HawkEye 360; GPS; miniature CubeSats for education and research; and military/defense satellites.

Loading next visibility...
Identifier
46796, 2020-074BK
Orbit
LEO
Country
Flag of USUS
Related business
Manufacturer
SpaceX/Seattle
Mission
Partially operational Commercial Communications
Bus & Motor
STARLINK, Unknown motor
Mass
260 kg wet, ~248 kg dry
Launch date (UTC)
2020-10-24 (6 years ago)
Launch vehicle
FALCON 9
Launch site
Air Force Eastern Test Range (AFETR)
Object type
Payload
Rocket body
Debris
Shape & HBR
Box + 1 Pan, 10.1 m
Radar Cross Section
13.562 m², Large (>1 m²)

Expand to show TLE details & history
Last TLE update: 2 days ago

TLE from 2 days ago
0 STARLINK-1944
1 46796U 20074BK  26171.50003471  .00391581  75378-4  79957-3 0  9993
2 46796  53.0306 116.8602 0003206 207.2891 183.3713 15.98897833  6008
Epoch: 2026-06-20T12:00Z
TLE epoch observation values (Epoch: 2026-06-20T12:00:02.998Z)
Latitude
24.10824°
Longitude
47.70198°
Altitude
280.478 km
Speed
7.741 km/s
True Right ascension
09h 05m 42s
True Declination
23° 58' 16"
Sunlit
Object was in daylight at epoch
Visualization orbit readout
Latitude
Unknown
Longitude
Unknown
Altitude
Unknown
Speed
Unknown
Apparent Right ascension
Unknown
Apparent Declination
Unknown
Sunlit
N/A
Visualization observer readout
Local Sidereal Time
21:39:07
Azimuth
Unknown
Elevation
Unknown
Doppler factor
Unknown
Orbital elements
Apogee altitude
279.895 km
Perigee altitude
275.627 km
Semi-major axis
6,655.898 km
Eccentricity
0.00032
Inclination
53.0306°
RAAN
116.8602°
Arg. of periapsis
207.2891°
True anomaly
183.36914°
Mean anomaly
183.3713°
Eccentric anomaly
183.37022°
Mean motion
3.99699 °/min
Orbital period
90.07 mins
BSTAR
0.00079957
Loading maneuver chart data...
Computing Atmospheric mass density...

Documentation

Showing up to 5 results
|